Year,Month,Day,Hour,Minute,Value (Times are PST for temperature in C)
2015,08,24,00,00,17.90
2015,08,24,00,01,17.90
2015,08,24,00,02,17.90
2015,08,24,00,03,17.90
2015,08,24,00,04,17.90
2015,08,24,00,05,17.90
2015,08,24,00,06,17.80
2015,08,24,00,07,17.80
2015,08,24,00,08,17.80
2015,08,24,00,09,17.80
2015,08,24,00,10,17.80
2015,08,24,00,11,17.80
2015,08,24,00,12,17.80
2015,08,24,00,13,17.80
2015,08,24,00,14,17.80
2015,08,24,00,15,17.80
2015,08,24,00,16,17.70
2015,08,24,00,17,17.70
2015,08,24,00,18,17.70
2015,08,24,00,19,17.70
2015,08,24,00,20,17.70
2015,08,24,00,21,17.70
2015,08,24,00,22,17.60
2015,08,24,00,23,17.60
2015,08,24,00,24,17.60
2015,08,24,00,25,17.60
2015,08,24,00,26,17.60
2015,08,24,00,27,17.50
2015,08,24,00,28,17.50
2015,08,24,00,29,17.50
2015,08,24,00,30,17.50
2015,08,24,00,31,17.40
2015,08,24,00,32,17.40
2015,08,24,00,33,17.40
2015,08,24,00,34,17.40
2015,08,24,00,35,17.40
2015,08,24,00,36,17.40
2015,08,24,00,37,17.30
2015,08,24,00,38,17.30
2015,08,24,00,39,17.30
2015,08,24,00,40,17.30
2015,08,24,00,41,17.30
2015,08,24,00,42,17.30
2015,08,24,00,43,17.30
2015,08,24,00,44,17.20
2015,08,24,00,45,17.20
2015,08,24,00,46,17.20
2015,08,24,00,47,17.20
2015,08,24,00,48,17.20
2015,08,24,00,49,17.10
2015,08,24,00,50,17.10
2015,08,24,00,51,17.10
2015,08,24,00,52,17.10
2015,08,24,00,53,17.00
2015,08,24,00,54,17.00
2015,08,24,00,55,17.00
2015,08,24,00,56,17.00
2015,08,24,00,57,16.90
2015,08,24,00,58,16.90
2015,08,24,00,59,16.90
2015,08,24,01,00,16.80
2015,08,24,01,01,16.80
2015,08,24,01,02,16.80
2015,08,24,01,03,16.80
2015,08,24,01,04,16.80
2015,08,24,01,05,16.70
2015,08,24,01,06,16.70
2015,08,24,01,07,16.70
2015,08,24,01,08,16.60
2015,08,24,01,09,16.60
2015,08,24,01,10,16.60
2015,08,24,01,11,16.50
2015,08,24,01,12,16.40
2015,08,24,01,13,16.40
2015,08,24,01,14,16.30
2015,08,24,01,15,16.20
2015,08,24,01,16,16.20
2015,08,24,01,17,16.10
2015,08,24,01,18,16.10
2015,08,24,01,19,16.10
2015,08,24,01,20,16.00
2015,08,24,01,21,16.00
2015,08,24,01,22,15.90
2015,08,24,01,23,15.90
2015,08,24,01,24,15.90
2015,08,24,01,25,15.80
2015,08,24,01,26,15.80
2015,08,24,01,27,15.80
2015,08,24,01,28,15.80
2015,08,24,01,29,15.70
2015,08,24,01,30,15.70
2015,08,24,01,31,15.70
2015,08,24,01,32,15.70
2015,08,24,01,33,15.70
2015,08,24,01,34,15.70
2015,08,24,01,35,15.60
2015,08,24,01,36,15.70
2015,08,24,01,37,15.70
2015,08,24,01,38,15.70
2015,08,24,01,39,15.70
2015,08,24,01,40,15.70
2015,08,24,01,41,15.70
2015,08,24,01,42,15.70
2015,08,24,01,43,15.70
2015,08,24,01,44,15.70
2015,08,24,01,45,15.70
2015,08,24,01,46,15.70
2015,08,24,01,47,15.70
2015,08,24,01,48,15.70
2015,08,24,01,49,15.70
2015,08,24,01,50,15.70
2015,08,24,01,51,15.70
2015,08,24,01,52,15.70
2015,08,24,01,53,15.70
2015,08,24,01,54,15.70
2015,08,24,01,55,15.70
2015,08,24,01,56,15.70
2015,08,24,01,57,15.70
2015,08,24,01,58,15.60
2015,08,24,01,59,15.60
2015,08,24,02,00,15.60
2015,08,24,02,01,15.50
2015,08,24,02,02,15.50
2015,08,24,02,03,15.40
2015,08,24,02,04,15.40
2015,08,24,02,05,15.30
2015,08,24,02,06,15.20
2015,08,24,02,07,15.10
2015,08,24,02,08,15.10
2015,08,24,02,09,15.00
2015,08,24,02,10,14.90
2015,08,24,02,11,14.90
2015,08,24,02,12,14.80
2015,08,24,02,13,14.80
2015,08,24,02,14,14.70
2015,08,24,02,15,14.60
2015,08,24,02,16,14.60
2015,08,24,02,17,14.50
2015,08,24,02,18,14.50
2015,08,24,02,19,14.40
2015,08,24,02,20,14.30
2015,08,24,02,21,14.30
2015,08,24,02,22,14.20
2015,08,24,02,23,14.20
2015,08,24,02,24,14.10
2015,08,24,02,25,14.10
2015,08,24,02,26,14.10
2015,08,24,02,27,14.00
2015,08,24,02,28,14.00
2015,08,24,02,29,13.90
2015,08,24,02,30,13.90
2015,08,24,02,31,13.90
2015,08,24,02,32,13.80
2015,08,24,02,33,13.80
2015,08,24,02,34,13.80
2015,08,24,02,35,13.80
2015,08,24,02,36,13.80
2015,08,24,02,37,13.70
2015,08,24,02,38,13.70
2015,08,24,02,39,13.70
2015,08,24,02,40,13.70
2015,08,24,02,41,13.70
2015,08,24,02,42,13.60
2015,08,24,02,43,13.60
2015,08,24,02,44,13.60
2015,08,24,02,45,13.60
2015,08,24,02,46,13.50
2015,08,24,02,47,13.50
2015,08,24,02,48,13.40
2015,08,24,02,49,13.40
2015,08,24,02,50,13.40
2015,08,24,02,51,13.30
2015,08,24,02,52,13.30
2015,08,24,02,53,13.20
2015,08,24,02,54,13.20
2015,08,24,02,55,13.20
2015,08,24,02,56,13.20
2015,08,24,02,57,13.10
2015,08,24,02,58,13.10
2015,08,24,02,59,13.10
2015,08,24,03,00,13.10
2015,08,24,03,01,13.10
2015,08,24,03,02,13.10
2015,08,24,03,03,13.00
2015,08,24,03,04,13.00
2015,08,24,03,05,12.90
2015,08,24,03,06,12.90
2015,08,24,03,07,12.90
2015,08,24,03,08,12.90
2015,08,24,03,09,12.80
2015,08,24,03,10,12.80
2015,08,24,03,11,12.80
2015,08,24,03,12,12.80
2015,08,24,03,13,12.80
2015,08,24,03,14,12.70
2015,08,24,03,15,12.70
2015,08,24,03,16,12.70
2015,08,24,03,17,12.70
2015,08,24,03,18,12.70
2015,08,24,03,19,12.70
2015,08,24,03,20,12.70
2015,08,24,03,21,12.70
2015,08,24,03,22,12.60
2015,08,24,03,23,12.60
2015,08,24,03,24,12.60
2015,08,24,03,25,12.60
2015,08,24,03,26,12.60
2015,08,24,03,27,12.60
2015,08,24,03,28,12.60
2015,08,24,03,29,12.60
2015,08,24,03,30,12.60
2015,08,24,03,31,12.60
2015,08,24,03,32,12.60
2015,08,24,03,33,12.60
2015,08,24,03,34,12.50
2015,08,24,03,35,12.60
2015,08,24,03,36,12.50
2015,08,24,03,37,12.50
2015,08,24,03,38,12.50
2015,08,24,03,39,12.50
2015,08,24,03,40,12.50
2015,08,24,03,41,12.50
2015,08,24,03,42,12.50
2015,08,24,03,43,12.50
2015,08,24,03,44,12.50
2015,08,24,03,45,12.40
2015,08,24,03,46,12.40
2015,08,24,03,47,12.40
2015,08,24,03,48,12.40
2015,08,24,03,49,12.40
2015,08,24,03,50,12.40
2015,08,24,03,51,12.40
2015,08,24,03,52,12.40
2015,08,24,03,53,12.40
2015,08,24,03,54,12.30
2015,08,24,03,55,12.30
2015,08,24,03,56,12.30
2015,08,24,03,57,12.30
2015,08,24,03,58,12.30
2015,08,24,03,59,12.30
2015,08,24,04,00,12.30
2015,08,24,04,01,12.20
2015,08,24,04,02,12.20
2015,08,24,04,03,12.20
2015,08,24,04,04,12.20
2015,08,24,04,05,12.20
2015,08,24,04,06,12.20
2015,08,24,04,07,12.20
2015,08,24,04,08,12.10
2015,08,24,04,09,12.10
2015,08,24,04,10,12.10
2015,08,24,04,11,12.10
2015,08,24,04,12,12.10
2015,08,24,04,13,12.10
2015,08,24,04,14,12.00
2015,08,24,04,15,12.00
2015,08,24,04,16,12.00
2015,08,24,04,17,11.90
2015,08,24,04,18,11.90
2015,08,24,04,19,11.90
2015,08,24,04,20,11.90
2015,08,24,04,21,11.90
2015,08,24,04,22,11.90
2015,08,24,04,23,11.90
2015,08,24,04,24,11.90
2015,08,24,04,25,11.90
2015,08,24,04,26,11.80
2015,08,24,04,27,11.80
2015,08,24,04,28,11.80
2015,08,24,04,29,11.80
2015,08,24,04,30,11.80
2015,08,24,04,31,11.80
2015,08,24,04,32,11.80
2015,08,24,04,33,11.80
2015,08,24,04,34,11.70
2015,08,24,04,35,11.70
2015,08,24,04,36,11.70
2015,08,24,04,37,11.70
2015,08,24,04,38,11.70
2015,08,24,04,39,11.70
2015,08,24,04,40,11.70
2015,08,24,04,41,11.70
2015,08,24,04,42,11.70
2015,08,24,04,43,11.70
2015,08,24,04,44,11.70
2015,08,24,04,45,11.60
2015,08,24,04,46,11.60
2015,08,24,04,47,11.60
2015,08,24,04,48,11.60
2015,08,24,04,49,11.60
2015,08,24,04,50,11.60
2015,08,24,04,51,11.60
2015,08,24,04,52,11.60
2015,08,24,04,53,11.60
2015,08,24,04,54,11.60
2015,08,24,04,55,11.60
2015,08,24,04,56,11.60
2015,08,24,04,57,11.60
2015,08,24,04,58,11.50
2015,08,24,04,59,11.50
2015,08,24,05,00,11.40
2015,08,24,05,01,11.40
2015,08,24,05,02,11.40
2015,08,24,05,03,11.40
2015,08,24,05,04,11.40
2015,08,24,05,05,11.40
2015,08,24,05,06,11.30
2015,08,24,05,07,11.30
2015,08,24,05,08,11.30
2015,08,24,05,09,11.30
2015,08,24,05,10,11.30
2015,08,24,05,11,11.30
2015,08,24,05,12,11.30
2015,08,24,05,13,11.30
2015,08,24,05,14,11.20
2015,08,24,05,15,11.30
2015,08,24,05,16,11.30
2015,08,24,05,17,11.30
2015,08,24,05,18,11.30
2015,08,24,05,19,11.30
2015,08,24,05,20,11.20
2015,08,24,05,21,11.20
2015,08,24,05,22,11.20
2015,08,24,05,23,11.20
2015,08,24,05,24,11.20
2015,08,24,05,25,11.10
2015,08,24,05,26,11.10
2015,08,24,05,27,11.10
2015,08,24,05,28,11.10
2015,08,24,05,29,11.00
2015,08,24,05,30,11.00
2015,08,24,05,31,11.00
2015,08,24,05,32,11.00
2015,08,24,05,33,10.90
2015,08,24,05,34,10.90
2015,08,24,05,35,10.90
2015,08,24,05,36,10.90
2015,08,24,05,37,10.90
2015,08,24,05,38,10.90
2015,08,24,05,39,10.90
2015,08,24,05,40,10.90
2015,08,24,05,41,10.90
2015,08,24,05,42,10.80
2015,08,24,05,43,10.80
2015,08,24,05,44,10.80
2015,08,24,05,45,10.80
2015,08,24,05,46,10.80
2015,08,24,05,47,10.80
2015,08,24,05,48,10.80
2015,08,24,05,49,10.80
2015,08,24,05,50,10.80
2015,08,24,05,51,10.80
2015,08,24,05,52,10.80
2015,08,24,05,53,10.80
2015,08,24,05,54,10.80
2015,08,24,05,55,10.80
2015,08,24,05,56,10.80
2015,08,24,05,57,10.70
2015,08,24,05,58,10.70
2015,08,24,05,59,10.70
2015,08,24,06,00,10.70
2015,08,24,06,01,10.70
2015,08,24,06,02,10.70
2015,08,24,06,03,10.70
2015,08,24,06,04,10.70
2015,08,24,06,05,10.70
2015,08,24,06,06,10.70
2015,08,24,06,07,10.70
2015,08,24,06,08,10.70
2015,08,24,06,09,10.60
2015,08,24,06,10,10.60
2015,08,24,06,11,10.60
2015,08,24,06,12,10.60
2015,08,24,06,13,10.60
2015,08,24,06,14,10.60
2015,08,24,06,15,10.60
2015,08,24,06,16,10.50
2015,08,24,06,17,10.50
2015,08,24,06,18,10.50
2015,08,24,06,19,10.50
2015,08,24,06,20,10.50
2015,08,24,06,21,10.40
2015,08,24,06,22,10.40
2015,08,24,06,23,10.40
2015,08,24,06,24,10.40
2015,08,24,06,25,10.40
2015,08,24,06,26,10.40
2015,08,24,06,27,10.40
2015,08,24,06,28,10.40
2015,08,24,06,29,10.30
2015,08,24,06,30,10.30
2015,08,24,06,31,10.30
2015,08,24,06,32,10.30
2015,08,24,06,33,10.30
2015,08,24,06,34,10.30
2015,08,24,06,35,10.30
2015,08,24,06,36,10.30
2015,08,24,06,37,10.20
2015,08,24,06,38,10.20
2015,08,24,06,39,10.20
2015,08,24,06,40,10.20
2015,08,24,06,41,10.20
2015,08,24,06,42,10.20
2015,08,24,06,43,10.20
2015,08,24,06,44,10.20
2015,08,24,06,45,10.20
2015,08,24,06,46,10.20
2015,08,24,06,47,10.20
2015,08,24,06,48,10.20
2015,08,24,06,49,10.20
2015,08,24,06,50,10.20
2015,08,24,06,51,10.20
2015,08,24,06,52,10.20
2015,08,24,06,53,10.20
2015,08,24,06,54,10.20
2015,08,24,06,55,10.30
2015,08,24,06,56,10.30
2015,08,24,06,57,10.30
2015,08,24,06,58,10.30
2015,08,24,06,59,10.30
2015,08,24,07,00,10.30
2015,08,24,07,01,10.40
2015,08,24,07,02,10.40
2015,08,24,07,03,10.40
2015,08,24,07,04,10.40
2015,08,24,07,05,10.50
2015,08,24,07,06,10.50
2015,08,24,07,07,10.50
2015,08,24,07,08,10.50
2015,08,24,07,09,10.60
2015,08,24,07,10,10.60
2015,08,24,07,11,10.60
2015,08,24,07,12,10.60
2015,08,24,07,13,10.70
2015,08,24,07,14,10.70
2015,08,24,07,15,10.70
2015,08,24,07,16,10.80
2015,08,24,07,17,10.80
2015,08,24,07,18,10.80
2015,08,24,07,19,10.90
2015,08,24,07,20,10.90
2015,08,24,07,21,11.00
2015,08,24,07,22,11.00
2015,08,24,07,23,11.10
2015,08,24,07,24,11.10
2015,08,24,07,25,11.10
2015,08,24,07,26,11.20
2015,08,24,07,27,11.30
2015,08,24,07,28,11.30
2015,08,24,07,29,11.40
2015,08,24,07,30,11.50
2015,08,24,07,31,11.60
2015,08,24,07,32,11.70
2015,08,24,07,33,11.70
2015,08,24,07,34,11.80
2015,08,24,07,35,11.90
2015,08,24,07,36,11.90
2015,08,24,07,37,12.00
2015,08,24,07,38,12.00
2015,08,24,07,39,12.00
2015,08,24,07,40,12.10
2015,08,24,07,41,12.10
2015,08,24,07,42,12.10
2015,08,24,07,43,12.10
2015,08,24,07,44,12.20
2015,08,24,07,45,12.20
2015,08,24,07,46,12.20
2015,08,24,07,47,12.30
2015,08,24,07,48,12.30
2015,08,24,07,49,12.30
2015,08,24,07,50,12.30
2015,08,24,07,51,12.40
2015,08,24,07,52,12.40
2015,08,24,07,53,12.50
2015,08,24,07,54,12.50
2015,08,24,07,55,12.50
2015,08,24,07,56,12.60
2015,08,24,07,57,12.70
2015,08,24,07,58,12.70
2015,08,24,07,59,12.80
2015,08,24,08,00,12.90
2015,08,24,08,01,13.00
2015,08,24,08,02,13.00
2015,08,24,08,03,13.10
2015,08,24,08,04,13.20
2015,08,24,08,05,13.20
2015,08,24,08,06,13.30
2015,08,24,08,07,13.30
2015,08,24,08,08,13.40
2015,08,24,08,09,13.40
2015,08,24,08,10,13.50
2015,08,24,08,11,13.50
2015,08,24,08,12,13.60
2015,08,24,08,13,13.70
2015,08,24,08,14,13.70
2015,08,24,08,15,13.70
2015,08,24,08,16,13.80
2015,08,24,08,17,13.80
2015,08,24,08,18,13.90
2015,08,24,08,19,13.90
2015,08,24,08,20,14.00
2015,08,24,08,21,14.00
2015,08,24,08,22,14.10
2015,08,24,08,23,14.10
2015,08,24,08,24,14.10
2015,08,24,08,25,14.20
2015,08,24,08,26,14.20
2015,08,24,08,27,14.20
2015,08,24,08,28,14.30
2015,08,24,08,29,14.30
2015,08,24,08,30,14.30
2015,08,24,08,31,14.40
2015,08,24,08,32,14.40
2015,08,24,08,33,14.40
2015,08,24,08,34,14.40
2015,08,24,08,35,14.50
2015,08,24,08,36,14.50
2015,08,24,08,37,14.50
2015,08,24,08,38,14.50
2015,08,24,08,39,14.60
2015,08,24,08,40,14.60
2015,08,24,08,41,14.70
2015,08,24,08,42,14.70
2015,08,24,08,43,14.80
2015,08,24,08,44,14.80
2015,08,24,08,45,14.90
2015,08,24,08,46,14.90
2015,08,24,08,47,14.90
2015,08,24,08,48,15.00
2015,08,24,08,49,15.00
2015,08,24,08,50,15.10
2015,08,24,08,51,15.10
2015,08,24,08,52,15.10
2015,08,24,08,53,15.10
2015,08,24,08,54,15.20
2015,08,24,08,55,15.20
2015,08,24,08,56,15.20
2015,08,24,08,57,15.30
2015,08,24,08,58,15.30
2015,08,24,08,59,15.30
2015,08,24,09,00,15.40
2015,08,24,09,01,15.40
2015,08,24,09,02,15.50
2015,08,24,09,03,15.60
2015,08,24,09,04,15.60
2015,08,24,09,05,15.70
2015,08,24,09,06,15.70
2015,08,24,09,07,15.70
2015,08,24,09,08,15.70
2015,08,24,09,09,15.70
2015,08,24,09,10,15.80
2015,08,24,09,11,15.80
2015,08,24,09,12,15.80
2015,08,24,09,13,15.90
2015,08,24,09,14,15.90
2015,08,24,09,15,15.90
2015,08,24,09,16,15.90
2015,08,24,09,17,16.00
2015,08,24,09,18,16.00
2015,08,24,09,19,16.10
2015,08,24,09,20,16.10
2015,08,24,09,21,16.20
2015,08,24,09,22,16.20
2015,08,24,09,23,16.20
2015,08,24,09,24,16.30
2015,08,24,09,25,16.30
2015,08,24,09,26,16.30
2015,08,24,09,27,16.30
2015,08,24,09,28,16.40
2015,08,24,09,29,16.40
2015,08,24,09,30,16.50
2015,08,24,09,31,16.50
2015,08,24,09,32,16.60
2015,08,24,09,33,16.60
2015,08,24,09,34,16.70
2015,08,24,09,35,16.70
2015,08,24,09,36,16.80
2015,08,24,09,37,16.80
2015,08,24,09,38,16.90
2015,08,24,09,39,16.90
2015,08,24,09,40,16.90
2015,08,24,09,41,17.00
2015,08,24,09,42,17.00
2015,08,24,09,43,17.10
2015,08,24,09,44,17.10
2015,08,24,09,45,17.10
2015,08,24,09,46,17.10
2015,08,24,09,47,17.20
2015,08,24,09,48,17.20
2015,08,24,09,49,17.20
2015,08,24,09,50,17.20
2015,08,24,09,51,17.20
2015,08,24,09,52,17.20
2015,08,24,09,53,17.20
2015,08,24,09,54,17.20
2015,08,24,09,55,17.20
2015,08,24,09,56,17.30
2015,08,24,09,57,17.30
2015,08,24,09,58,17.30
2015,08,24,09,59,17.40
2015,08,24,10,00,17.50
2015,08,24,10,01,17.60
2015,08,24,10,02,17.70
2015,08,24,10,03,17.80
2015,08,24,10,04,17.80
2015,08,24,10,05,17.90
2015,08,24,10,06,17.90
2015,08,24,10,07,18.00
2015,08,24,10,08,18.00
2015,08,24,10,09,18.10
2015,08,24,10,10,18.10
2015,08,24,10,11,18.20
2015,08,24,10,12,18.20
2015,08,24,10,13,18.20
2015,08,24,10,14,18.10
2015,08,24,10,15,18.10
2015,08,24,10,16,18.00
2015,08,24,10,17,18.00
2015,08,24,10,18,18.00
2015,08,24,10,19,18.00
2015,08,24,10,20,18.00
2015,08,24,10,21,18.10
2015,08,24,10,22,18.10
2015,08,24,10,23,18.10
2015,08,24,10,24,18.10
2015,08,24,10,25,18.20
2015,08,24,10,26,18.20
2015,08,24,10,27,18.20
2015,08,24,10,28,18.20
2015,08,24,10,29,18.20
2015,08,24,10,30,18.20
2015,08,24,10,31,18.20
2015,08,24,10,32,18.20
2015,08,24,10,33,18.20
2015,08,24,10,34,18.30
2015,08,24,10,35,18.30
2015,08,24,10,36,18.30
2015,08,24,10,37,18.30
2015,08,24,10,38,18.30
2015,08,24,10,39,18.30
2015,08,24,10,40,18.20
2015,08,24,10,41,18.20
2015,08,24,10,42,18.20
2015,08,24,10,43,18.30
2015,08,24,10,44,18.30
2015,08,24,10,45,18.30
2015,08,24,10,46,18.40
2015,08,24,10,47,18.30
2015,08,24,10,48,18.30
2015,08,24,10,49,18.30
2015,08,24,10,50,18.20
2015,08,24,10,51,18.20
2015,08,24,10,52,18.20
2015,08,24,10,53,18.20
2015,08,24,10,54,18.20
2015,08,24,10,55,18.20
2015,08,24,10,56,18.20
2015,08,24,10,57,18.20
2015,08,24,10,58,18.20
2015,08,24,10,59,18.20
2015,08,24,11,00,18.30
2015,08,24,11,01,18.30
2015,08,24,11,02,18.30
2015,08,24,11,03,18.30
2015,08,24,11,04,18.30
2015,08,24,11,05,18.30
2015,08,24,11,06,18.30
2015,08,24,11,07,18.30
2015,08,24,11,08,18.40
2015,08,24,11,09,18.40
2015,08,24,11,10,18.50
2015,08,24,11,11,18.50
2015,08,24,11,12,18.60
2015,08,24,11,13,18.60
2015,08,24,11,14,18.70
2015,08,24,11,15,18.70
2015,08,24,11,16,18.70
2015,08,24,11,17,18.70
2015,08,24,11,18,18.80
2015,08,24,11,19,18.70
2015,08,24,11,20,18.70
2015,08,24,11,21,18.70
2015,08,24,11,22,18.70
2015,08,24,11,23,18.70
2015,08,24,11,24,18.70
2015,08,24,11,25,18.70
2015,08,24,11,26,18.80
2015,08,24,11,27,18.80
2015,08,24,11,28,18.80
2015,08,24,11,29,18.80
2015,08,24,11,30,18.80
2015,08,24,11,31,18.70
2015,08,24,11,32,18.70
2015,08,24,11,33,18.70
2015,08,24,11,34,18.60
2015,08,24,11,35,18.60
2015,08,24,11,36,18.60
2015,08,24,11,37,18.60
2015,08,24,11,38,18.70
2015,08,24,11,39,18.70
2015,08,24,11,40,18.60
2015,08,24,11,41,18.60
2015,08,24,11,42,18.60
2015,08,24,11,43,18.60
2015,08,24,11,44,18.60
2015,08,24,11,45,18.60
2015,08,24,11,46,18.60
2015,08,24,11,47,18.60
2015,08,24,11,48,18.60
2015,08,24,11,49,18.70
2015,08,24,11,50,18.70
2015,08,24,11,51,18.70
2015,08,24,11,52,18.60
2015,08,24,11,53,18.50
2015,08,24,11,54,18.40
2015,08,24,11,55,18.40
2015,08,24,11,56,18.40
2015,08,24,11,57,18.40
2015,08,24,11,58,18.30
2015,08,24,11,59,18.40
2015,08,24,12,00,18.40
2015,08,24,12,01,18.40
2015,08,24,12,02,18.40
2015,08,24,12,03,18.50
2015,08,24,12,04,18.50
2015,08,24,12,05,18.60
2015,08,24,12,06,18.70
2015,08,24,12,07,18.80
2015,08,24,12,08,18.90
2015,08,24,12,09,19.00
2015,08,24,12,10,19.00
2015,08,24,12,11,19.10
2015,08,24,12,12,19.20
2015,08,24,12,13,19.20
2015,08,24,12,14,19.20
2015,08,24,12,15,19.20
2015,08,24,12,16,19.20
2015,08,24,12,17,19.20
2015,08,24,12,18,19.20
2015,08,24,12,19,19.30
2015,08,24,12,20,19.30
2015,08,24,12,21,19.30
2015,08,24,12,22,19.40
2015,08,24,12,23,19.40
2015,08,24,12,24,19.40
2015,08,24,12,25,19.50
2015,08,24,12,26,19.50
2015,08,24,12,27,19.60
2015,08,24,12,28,19.60
2015,08,24,12,29,19.60
2015,08,24,12,30,19.60
2015,08,24,12,31,19.70
2015,08,24,12,32,19.70
2015,08,24,12,33,19.70
2015,08,24,12,34,19.60
2015,08,24,12,35,19.60
2015,08,24,12,36,19.60
2015,08,24,12,37,19.60
2015,08,24,12,38,19.50
2015,08,24,12,39,19.50
2015,08,24,12,40,19.50
2015,08,24,12,41,19.50
2015,08,24,12,42,19.50
2015,08,24,12,43,19.40
2015,08,24,12,44,19.40
2015,08,24,12,45,19.40
2015,08,24,12,46,19.50
2015,08,24,12,47,19.50
2015,08,24,12,48,19.50
2015,08,24,12,49,19.60
2015,08,24,12,50,19.60
2015,08,24,12,51,19.60
2015,08,24,12,52,19.70
2015,08,24,12,53,19.70
2015,08,24,12,54,19.70
2015,08,24,12,55,19.80
2015,08,24,12,56,19.90
2015,08,24,12,57,19.90
2015,08,24,12,58,19.80
2015,08,24,12,59,19.80
2015,08,24,13,00,19.80
2015,08,24,13,01,19.70
2015,08,24,13,02,19.70
2015,08,24,13,03,19.80
2015,08,24,13,04,19.80
2015,08,24,13,05,19.80
2015,08,24,13,06,19.80
2015,08,24,13,07,19.80
2015,08,24,13,08,19.80
2015,08,24,13,09,19.90
2015,08,24,13,10,19.90
2015,08,24,13,11,19.90
2015,08,24,13,12,19.90
2015,08,24,13,13,19.90
2015,08,24,13,14,19.90
2015,08,24,13,15,19.90
2015,08,24,13,16,19.90
2015,08,24,13,17,19.90
2015,08,24,13,18,19.80
2015,08,24,13,19,19.80
2015,08,24,13,20,19.70
2015,08,24,13,21,19.70
2015,08,24,13,22,19.70
2015,08,24,13,23,19.80
2015,08,24,13,24,19.80
2015,08,24,13,25,19.80
2015,08,24,13,26,19.80
2015,08,24,13,27,19.70
2015,08,24,13,28,19.80
2015,08,24,13,29,19.80
2015,08,24,13,30,19.90
2015,08,24,13,31,20.00
2015,08,24,13,32,20.00
2015,08,24,13,33,20.00
2015,08,24,13,34,20.00
2015,08,24,13,35,20.00
2015,08,24,13,36,20.00
2015,08,24,13,37,19.90
2015,08,24,13,38,19.80
2015,08,24,13,39,19.80
2015,08,24,13,40,19.80
2015,08,24,13,41,19.70
2015,08,24,13,42,19.70
2015,08,24,13,43,19.70
2015,08,24,13,44,19.70
2015,08,24,13,45,19.70
2015,08,24,13,46,19.70
2015,08,24,13,47,19.80
2015,08,24,13,48,19.80
2015,08,24,13,49,19.90
2015,08,24,13,50,19.90
2015,08,24,13,51,19.90
2015,08,24,13,52,19.90
2015,08,24,13,53,20.00
2015,08,24,13,54,20.10
2015,08,24,13,55,20.20
2015,08,24,13,56,20.30
2015,08,24,13,57,20.30
2015,08,24,13,58,20.40
2015,08,24,13,59,20.40
2015,08,24,14,00,20.50
2015,08,24,14,01,20.60
2015,08,24,14,02,20.50
2015,08,24,14,03,20.50
2015,08,24,14,04,20.50
2015,08,24,14,05,20.40
2015,08,24,14,06,20.30
2015,08,24,14,07,20.30
2015,08,24,14,08,20.30
2015,08,24,14,09,20.30
2015,08,24,14,10,20.30
2015,08,24,14,11,20.20
2015,08,24,14,12,20.20
2015,08,24,14,13,20.20
2015,08,24,14,14,20.20
2015,08,24,14,15,20.20
2015,08,24,14,16,20.20
2015,08,24,14,17,20.20
2015,08,24,14,18,20.20
2015,08,24,14,19,20.20
2015,08,24,14,20,20.20
2015,08,24,14,21,20.30
2015,08,24,14,22,20.30
2015,08,24,14,23,20.40
2015,08,24,14,24,20.40
2015,08,24,14,25,20.40
2015,08,24,14,26,20.40
2015,08,24,14,27,20.40
2015,08,24,14,28,20.40
2015,08,24,14,29,20.40
2015,08,24,14,30,20.40
2015,08,24,14,31,20.40
2015,08,24,14,32,20.50
2015,08,24,14,33,20.50
2015,08,24,14,34,20.60
2015,08,24,14,35,20.60
2015,08,24,14,36,20.60
2015,08,24,14,37,20.50
2015,08,24,14,38,20.50
2015,08,24,14,39,20.40
2015,08,24,14,40,20.40
2015,08,24,14,41,20.40
2015,08,24,14,42,20.40
2015,08,24,14,43,20.40
2015,08,24,14,44,20.40
2015,08,24,14,45,20.30
2015,08,24,14,46,20.30
2015,08,24,14,47,20.30
2015,08,24,14,48,20.30
2015,08,24,14,49,20.30
2015,08,24,14,50,20.40
2015,08,24,14,51,20.40
2015,08,24,14,52,20.50
2015,08,24,14,53,20.50
2015,08,24,14,54,20.40
2015,08,24,14,55,20.50
2015,08,24,14,56,20.50
2015,08,24,14,57,20.50
2015,08,24,14,58,20.50
2015,08,24,14,59,20.60
2015,08,24,15,00,20.60
2015,08,24,15,01,20.60
2015,08,24,15,02,20.70
2015,08,24,15,03,20.70
2015,08,24,15,04,20.70
2015,08,24,15,05,20.80
2015,08,24,15,06,20.80
2015,08,24,15,07,20.80
2015,08,24,15,08,20.80
2015,08,24,15,09,20.80
2015,08,24,15,10,20.80
2015,08,24,15,11,20.70
2015,08,24,15,12,20.70
2015,08,24,15,13,20.70
2015,08,24,15,14,20.60
2015,08,24,15,15,20.60
2015,08,24,15,16,20.50
2015,08,24,15,17,20.60
2015,08,24,15,18,20.60
2015,08,24,15,19,20.70
2015,08,24,15,20,20.70
2015,08,24,15,21,20.80
2015,08,24,15,22,20.80
2015,08,24,15,23,20.90
2015,08,24,15,24,20.90
2015,08,24,15,25,20.90
2015,08,24,15,26,20.90
2015,08,24,15,27,20.90
2015,08,24,15,28,20.90
2015,08,24,15,29,21.20
2015,08,24,15,30,21.20
2015,08,24,15,31,21.20
2015,08,24,15,32,21.20
2015,08,24,15,33,21.20
2015,08,24,15,34,21.10
2015,08,24,15,35,21.00
2015,08,24,15,36,20.90
2015,08,24,15,37,20.90
2015,08,24,15,38,20.90
2015,08,24,15,39,20.80
2015,08,24,15,40,20.70
2015,08,24,15,41,20.70
2015,08,24,15,42,20.70
2015,08,24,15,43,20.70
2015,08,24,15,44,20.70
2015,08,24,15,45,20.70
2015,08,24,15,46,20.70
2015,08,24,15,47,20.70
2015,08,24,15,48,20.80
2015,08,24,15,49,20.80
2015,08,24,15,50,20.80
2015,08,24,15,51,20.80
2015,08,24,15,52,20.80
2015,08,24,15,53,20.80
2015,08,24,15,54,20.80
2015,08,24,15,55,20.80
2015,08,24,15,56,20.80
2015,08,24,15,57,20.80
2015,08,24,15,58,20.80
2015,08,24,15,59,20.80
2015,08,24,16,00,20.70
2015,08,24,16,01,20.70
2015,08,24,16,02,20.70
2015,08,24,16,03,20.70
2015,08,24,16,04,20.70
2015,08,24,16,05,20.80
2015,08,24,16,06,20.80
2015,08,24,16,07,20.80
2015,08,24,16,08,20.90
2015,08,24,16,09,20.90
2015,08,24,16,10,21.00
2015,08,24,16,11,21.10
2015,08,24,16,12,21.20
2015,08,24,16,13,21.20
2015,08,24,16,14,21.20
2015,08,24,16,15,21.20
2015,08,24,16,16,21.20
2015,08,24,16,17,21.10
2015,08,24,16,18,21.00
2015,08,24,16,19,20.90
2015,08,24,16,20,20.90
2015,08,24,16,21,20.80
2015,08,24,16,22,20.80
2015,08,24,16,23,20.80
2015,08,24,16,24,20.80
2015,08,24,16,25,20.80
2015,08,24,16,26,20.90
2015,08,24,16,27,21.00
2015,08,24,16,28,21.00
2015,08,24,16,29,21.10
2015,08,24,16,30,21.10
2015,08,24,16,31,21.20
2015,08,24,16,32,21.20
2015,08,24,16,33,21.20
2015,08,24,16,34,21.20
2015,08,24,16,35,21.10
2015,08,24,16,36,21.10
2015,08,24,16,37,21.10
2015,08,24,16,38,21.10
2015,08,24,16,39,21.10
2015,08,24,16,40,21.10
2015,08,24,16,41,21.00
2015,08,24,16,42,20.90
2015,08,24,16,43,20.90
2015,08,24,16,44,20.80
2015,08,24,16,45,20.80
2015,08,24,16,46,20.80
2015,08,24,16,47,20.80
2015,08,24,16,48,20.80
2015,08,24,16,49,20.70
2015,08,24,16,50,20.70
2015,08,24,16,51,20.70
2015,08,24,16,52,20.80
2015,08,24,16,53,20.80
2015,08,24,16,54,20.80
2015,08,24,16,55,20.80
2015,08,24,16,56,20.80
2015,08,24,16,57,20.90
2015,08,24,16,58,20.90
2015,08,24,16,59,20.90
2015,08,24,17,00,20.90
2015,08,24,17,01,20.90
2015,08,24,17,02,20.90
2015,08,24,17,03,21.00
2015,08,24,17,04,21.00
2015,08,24,17,05,21.10
2015,08,24,17,06,21.00
2015,08,24,17,07,21.00
2015,08,24,17,08,21.10
2015,08,24,17,09,21.10
2015,08,24,17,10,21.10
2015,08,24,17,11,21.00
2015,08,24,17,12,21.00
2015,08,24,17,13,20.90
2015,08,24,17,14,20.80
2015,08,24,17,15,20.80
2015,08,24,17,16,20.80
2015,08,24,17,17,20.70
2015,08,24,17,18,20.60
2015,08,24,17,19,20.60